{"data":{"norad_id":67518,"intl_designator":"2026-012AB","name":"STARLINK-36412","alt_names":[],"object_type":"PAYLOAD","status":"ACTIVE","operator":null,"country":"US","launch_date":"2026-01-18","launch_site_code":"AFETR","launch_vehicle":null,"mission":null,"orbit_class":"UNKNOWN","rcs_meters":null,"size_class":null,"mass_kg":null,"dimensions":null,"purposes":["comms"],"wikipedia_slug":null,"has_3d_model":false,"image_url":null,"decayed_at":null,"tle_current":{"epoch":"2026-05-24T23:38:50.885088Z","epoch_age_seconds":80328,"freshness":"FRESH","line1":"1 67518U 26012AB  26144.98531117  .00007662  00000+0  28762-3 0  9998","line2":"2 67518  43.0056 243.2232 0001937 269.8096  90.2534 15.27584458 19434","mean_motion":15.27584458,"eccentricity":0.0001937,"inclination_deg":43.0056,"raan_deg":243.2232,"arg_perigee_deg":269.8096,"mean_anomaly_deg":90.2534,"bstar":0.00028762,"rev_number":1943,"period_min":94.266473611896,"perigee_km":481.70673805522,"apogee_km":484.3647563775,"semimajor_km":6861.1727472164,"source":"CELESTRAK","updated_at":"2026-05-25T13:38:21.603170Z"}}}